Address 0xd66e40b0c30595bec72153b502ac1e0c4785991b 7

My Name Tag:
Not Available

Txn Hash Method
Block
From
To
Value [Txn Fee]
0x6d6c3b3f260a2f7b13788c9bc06c3452abeeaa46688503c7d152a3b9402cba15Call Agreement196251592021-10-01 11:00:2620 days 59 mins ago0xd66e40b0c30595bec72153b502ac1e0c4785991bOUT 0xeb796bdb90ffa0f28255275e16936d25d34186030 MATIC0.02050134
0x197025b065221de3697fb71391c053d499d7cd446cce2641dbe0f919b7946bd0Call Agreement196251462021-10-01 10:59:5620 days 1 hr ago0xd66e40b0c30595bec72153b502ac1e0c4785991bOUT 0xeb796bdb90ffa0f28255275e16936d25d34186030 MATIC0.01887168
0x65a72a47ab440cf7d95f5c4c0d5dbf2fb9d4dae21512f72e41b131ca94177677Call Agreement196251292021-10-01 10:59:2220 days 1 hr ago0xd66e40b0c30595bec72153b502ac1e0c4785991bOUT 0xeb796bdb90ffa0f28255275e16936d25d34186030 MATIC0.01934163
0x8c303d39205be989e59afb00412643e48d82278f0de0e17e839479a3b95254b8Call Agreement196251222021-10-01 10:59:0820 days 1 hr ago0xd66e40b0c30595bec72153b502ac1e0c4785991bOUT 0xeb796bdb90ffa0f28255275e16936d25d34186030 MATIC0.01800306
0xc1c28fc01689717adc2719492fd37284b12f25213ceb0c690569485fd006a329Call Agreement196250472021-10-01 10:56:3420 days 1 hr ago0xd66e40b0c30595bec72153b502ac1e0c4785991bOUT 0xeb796bdb90ffa0f28255275e16936d25d34186030 MATIC0.02018139
0x4ad0bfc95808969213910c860309340cd0e1bb7ceef0c57840152fb0594397bdCall Agreement196250302021-10-01 10:56:0020 days 1 hr ago0xd66e40b0c30595bec72153b502ac1e0c4785991bOUT 0xeb796bdb90ffa0f28255275e16936d25d34186030 MATIC0.02173578
0xf2c2086cbd5f4bc8616f250092d5d4fbcda7de5f9d840f52c35f37f8533ecaf8Transfer196249972021-10-01 10:54:5020 days 1 hr ago0xd66e40b0c30595bec72153b502ac1e0c4785991bOUT 0x42bb40bf79730451b11f6de1cba222f17b87afd70 MATIC0.00461019
0x8fa3b330e393332ba8dea7643e4112ac3909f74c8284be6a235ae0c5c76563feTransfer196249862021-10-01 10:54:2820 days 1 hr ago0xd66e40b0c30595bec72153b502ac1e0c4785991bOUT 0x42bb40bf79730451b11f6de1cba222f17b87afd70 MATIC0.00461019
0x3de50ee64a2024cf384ad533b5c44c234c3e8d9aa6d0261bb9515833863de1bdUpgrade196249642021-10-01 10:53:4420 days 1 hr ago0xd66e40b0c30595bec72153b502ac1e0c4785991bOUT 0x42bb40bf79730451b11f6de1cba222f17b87afd70 MATIC0.0019869
0x995d63d74a36c10d36436bd6b79a2f64e670efaa2c35243529f340e924c0ed77Approve196249582021-10-01 10:53:2820 days 1 hr ago0xd66e40b0c30595bec72153b502ac1e0c4785991bOUT 0xbe49ac1eadac65dccf204d4df81d650b50122ab20 MATIC0.00138549
0x6b94e8234d4a8bbe7eaec36dab91193deb7406abb7c8e7fa48f787e74199aab0Upgrade196249482021-10-01 10:53:0820 days 1 hr ago0xd66e40b0c30595bec72153b502ac1e0c4785991bOUT 0x5d8b4c2554aeb7e86f387b4d6c00ac33499ed01f0 MATIC0.0014739
0xece3afabd75d7dba408083e0d3168755f9f5d42ea3e829b701cee240176cb7b2Approve196249402021-10-01 10:52:5220 days 1 hr ago0xd66e40b0c30595bec72153b502ac1e0c4785991bOUT 0x15f0ca26781c3852f8166ed2ebce5d18265cceb70 MATIC0.00087213
0xe4ac384840dff7f18964f8c2147236df7f863bba4ca014781e545a1efc0fc0270x60806040196249112021-10-01 10:51:5420 days 1 hr ago0xd66e40b0c30595bec72153b502ac1e0c4785991bOUT Contract Creation0 MATIC0.03235977
0x4f6bba029b57be4a3b710c25bdb628c21537bb1dc3ae8ef92dfbafdbaa7462fb0x60806040196248942021-10-01 10:51:1620 days 1 hr ago0xd66e40b0c30595bec72153b502ac1e0c4785991bOUT Contract Creation0 MATIC0.03619389
0x2ab8555b16f6347c28354418e7710a722374eced15110e6e451ab0659feea1c00x60806040196248712021-10-01 10:50:3020 days 1 hr ago0xd66e40b0c30595bec72153b502ac1e0c4785991bOUT Contract Creation0 MATIC0.03236013
0x808d412ce1c42a74ff4cb689e662082bd1a036983fed763304b14927368fc08dSet191711692021-09-20 14:07:3430 days 21 hrs ago0xd66e40b0c30595bec72153b502ac1e0c4785991bOUT 0xbb16307aaed1e070b3c4465d4fda5e518bdc24330 MATIC0.00094606
0xf3b6f9d2f6926be377d591c41b4cafacdd56fab108c315b5bfa47cc59f624526Initialize191711672021-09-20 14:07:3030 days 21 hrs ago0xd66e40b0c30595bec72153b502ac1e0c4785991bOUT 0x47a00a009e5b09a19a2f10e6b96aa2f3f103769b0 MATIC0.00348714
0x05d311bfdcb7b194c70c3315b394b27ee4d2484cf961e1484b038a4852ee9934Initialize Custo...191711652021-09-20 14:07:2630 days 21 hrs ago0xd66e40b0c30595bec72153b502ac1e0c4785991bOUT 0x85fc6b6bd56acf704b8e351ed9a2a88475f12a220 MATIC0.0011076
0xecabc015d36fa7473b1916334564e02056ad1384cab2084b99a969e337234a430x60a06040191711632021-09-20 14:07:2230 days 21 hrs ago0xd66e40b0c30595bec72153b502ac1e0c4785991bOUT Contract Creation0 MATIC0.01874508
0xbd70d70081544a09cdca103e4439aa9d35af3859a87e792d9c0bd3c0482ee080Set191711532021-09-20 14:07:0230 days 21 hrs ago0xd66e40b0c30595bec72153b502ac1e0c4785991bOUT 0xbb16307aaed1e070b3c4465d4fda5e518bdc24330 MATIC0.0009463
0x7497dabfb6371660c443c3e1cfafcb281bb59e2800bb6672ec41ed7e7b7dcdbdCreate ERC20Wrap...191711512021-09-20 14:06:5830 days 21 hrs ago0xd66e40b0c30595bec72153b502ac1e0c4785991bOUT 0x85fc6b6bd56acf704b8e351ed9a2a88475f12a220 MATIC0.00692292
0x20911125400cd9af90a0d5c6754025c1e768e6b5bf7e808c83730d8f72a66686Set191711402021-09-20 14:06:3630 days 21 hrs ago0xd66e40b0c30595bec72153b502ac1e0c4785991bOUT 0xbb16307aaed1e070b3c4465d4fda5e518bdc24330 MATIC0.00094342
0x40ec24bb3fe4f7607b7700c6874d924dc8e9d4285645467cea311336416a07dd0x60806040191711382021-09-20 14:06:3230 days 21 hrs ago0xd66e40b0c30595bec72153b502ac1e0c4785991bOUT Contract Creation0 MATIC0.0149826
0xbd1910f1ebfe35b7f0ff73be33ed878050fc7d04b8f302e0368024467eb0a61eSet191711332021-09-20 14:06:1830 days 21 hrs ago0xd66e40b0c30595bec72153b502ac1e0c4785991bOUT 0xbb16307aaed1e070b3c4465d4fda5e518bdc24330 MATIC0.0009463
0xcddee8261a6da4c073815bb58f6f64466dcd2f346f212e0b9cf347eb3b642899Create ERC20Wrap...191711312021-09-20 14:06:1430 days 21 hrs ago0xd66e40b0c30595bec72153b502ac1e0c4785991bOUT 0x85fc6b6bd56acf704b8e351ed9a2a88475f12a220 MATIC0.00692292
[ Download CSV Export 
Latest 2 internal transactions
Parent Txn Hash Block From To Value
0x5417091d91384380499c28c4c1890e28a1d3b5c9bcd4f6a7aa304c4625033269106578962021-02-18 14:02:21244 days 21 hrs ago 0x05352c7d52d792519974f1385c0c3b61a179a4c10xd66e40b0c30595bec72153b502ac1e0c4785991b0.01 MATIC
0x9c1d39e1b7248127f31214e30905d52efce7c68e4e632fd7464edb235313718d92654862021-01-12 15:38:12281 days 20 hrs ago 0x56ada74f8462ae7f92287c8e8604e4d846c3a43b0xd66e40b0c30595bec72153b502ac1e0c4785991b1 MATIC
[ Download CSV Export 
Loading

Contract Name:
0 MATIC

Compiler Version
0

Optimization Enabled:
0 MATIC

Other Settings:
-NA-
Block Transaction Gas Used Reward
Age Block Fee Address BC Fee Address Voting Power Jailed Incoming
Block Uncle Number Difficulty Gas Used Reward
Loading